Home   Weather   Chula Vista   Past weeks

Flag for USA Past Weather in Chula Vista, California, USA — Yesterday and Last 2 Weeks

65 °F


Feels Like: 65 °F
Forecast: 60 / 82 °F
Wind: 7 mph from Southeast

Location: Brown Field Municipal Airport

Current Time: Oct 22, 2016 at 9:11:39 AM

Latest Report: Oct 22, 2016 at 7:53 AM

Visibility: 10 mi

Pressure: 29.88 "Hg

Humidity: 27%

Dew Point: 30 °F

Location of Chula VistaLocation

Past Weather in Chula Vista — Graph


Chula Vista Temperature Yesterday

Maximum temperature yesterday: 90 °F (at 10:53 AM)
Minimum temperature yesterday: 60 °F (at 11:53 PM)
Average temperature yesterday: 74 °F

High & Low Weather Summary for the Past Weeks

High95 °F (Oct 20, 12:53 PM)97% (Oct 11, 12:58 AM)30.06 "Hg (Oct 11, 12:58 AM)
Low53 °F (Oct 13, 3:53 AM)7% (Oct 21, 10:53 AM)29.80 "Hg (Oct 7, 2:53 PM)
Average68 °F60%29.95 "Hg
* Reported Oct 7 7:53 AM — Oct 22 7:53 AM, Chula Vista, Weather by CustomWeather, © 2016

Note: Actual official high and low records may vary slightly from our data, if they occured in-between our weather recording intervals... More about our weather records


Chula Vista Weather History for the Previous 24 Hours

Scroll right to see more
Time TempWeatherWind HumidityBarometerVisibility
7:53 AM
Sat, Oct 22
65 °FSunny.7 mph27%29.88 "Hg10 mi
6:53 AM58 °FClear.8 mph33%29.87 "Hg10 mi
5:53 AM60 °FClear.7 mph31%29.86 "Hg10 mi
4:53 AM60 °FClear.9 mph32%29.85 "Hg10 mi
3:53 AM58 °FClear.6 mph35%29.85 "Hg10 mi
2:53 AM59 °FClear.7 mph32%29.86 "Hg10 mi
1:53 AM64 °FClear.7 mph28%29.85 "Hg8 mi
12:53 AM60 °FClear.6 mph33%29.86 "Hg10 mi
11:53 PM
Fri, Oct 21
60 °FClear.6 mph38%29.87 "Hg10 mi
10:53 PM65 °FClear.3 mph31%29.88 "Hg10 mi
9:53 PM63 °FClear.3 mph31%29.86 "Hg10 mi
8:53 PM67 °FClear.3 mph30%29.86 "Hg10 mi
7:53 PM72 °FClear.No wind28%29.86 "Hg10 mi
6:53 PM73 °FClear.No wind19%29.85 "Hg10 mi
5:53 PM78 °FSunny.5 mph15%29.83 "Hg10 mi
4:53 PM82 °FSunny.7 mph15%29.83 "Hg10 mi
3:53 PM83 °FSunny.6 mph26%29.83 "Hg10 mi
2:53 PM86 °FSunny.7 mph15%29.83 "Hg10 mi
1:53 PM88 °FSunny.9 mph10%29.83 "Hg10 mi
12:53 PM89 °FSunny.7 mph11%29.85 "Hg10 mi
11:53 AM90 °FSunny.7 mph11%29.87 "Hg10 mi
10:53 AM90 °FSunny.3 mph7%29.88 "Hg10 mi
9:53 AM86 °FSunny.5 mph8%29.89 "Hg10 mi
Weather by CustomWeather, © 2016

See weather overviewHow to use our weather pages